EW9439 Weather Reports


time (UTC)temp
F
wind
direction
speed
knots
gust
knots
rain 1hr
in
rain 24hr
in
rain mn
in
humidity
%
barometer
mb
20260506200025 77 103 0.0 0.0 0.00 0.00 0.00 71 1008.8
20260506194520 77 111 0.0 0.0 0.00 0.00 0.00 72 1008.9
20260506193030 78 113 0.0 0.0 0.00 0.00 0.00 71 1009.4
20260506191550 78 113 0.0 1.7 0.00 0.00 0.00 70 1009.5
20260506190032 77 76 0.0 0.0 0.00 0.00 0.00 71 1009.8
20260506184536 77 76 0.0 0.0 0.00 0.00 0.00 72 1010.1
20260506183033 77 153 0.0 0.0 0.00 0.00 0.00 70 1010.3
20260506181540 78 337 0.0 0.0 0.00 0.00 0.00 70 1010.3
20260506180047 78 336 0.0 0.0 0.00 0.00 0.00 68 1010.2
20260506174550 78 159 0.0 0.0 0.00 0.00 0.00 68 1010.0
20260506173107 78 107 0.0 0.0 0.00 0.00 0.00 70 1010.1
20260506171556 78 355 0.0 0.0 0.00 0.00 0.00 71 1009.9
20260506170050 77 20 0.0 0.0 0.00 0.00 0.00 70 1010.2
20260506164552 77 83 0.0 0.0 0.00 0.00 0.00 71 1010.2
20260506163104 75 319 0.0 0.0 0.00 0.00 0.00 72 1010.6
20260506161600 73 316 0.0 0.0 0.00 0.00 0.00 76 1010.8
20260506160019 73 315 0.0 0.0 0.00 0.00 0.00 76 1011.1
20260506154530 72 224 0.0 0.0 0.00 0.00 0.00 78 1011.0
20260506153022 69 221 0.0 0.0 0.00 0.00 0.00 81 1011.5
20260506151522 68 132 0.0 0.0 0.00 0.00 0.00 81 1011.8
20260506150021 68 131 0.0 0.0 0.00 0.00 0.00 81 1011.8
20260506144523 68 329 0.0 0.0 0.00 0.00 0.00 82 1011.8
20260506143032 68 329 0.0 0.0 0.00 0.00 0.00 82 1011.6
20260506141554 68 329 0.0 0.0 0.00 0.00 0.00 82 1011.5
20260506140100 67 329 0.0 0.0 0.00 0.00 0.00 82 1011.1
20260506134555 67 329 0.0 0.0 0.00 0.00 0.00 83 1010.6
20260506133059 67 301 0.0 0.0 0.00 0.00 0.00 82 1010.6
20260506131504 67 301 0.0 0.0 0.00 0.00 0.00 84 1010.6
20260506130007 67 292 0.0 0.0 0.00 0.00 0.00 84 1010.4
20260506124507 66 292 0.0 0.0 0.00 0.00 0.00 85 1010.3
20260506123011 66 293 0.0 0.0 0.00 0.00 0.00 85 1010.4
20260506121518 66 293 0.0 0.0 0.00 0.00 0.00 85 1010.4
20260506120110 66 285 0.0 0.0 0.00 0.00 0.00 85 1010.2
20260506120002 66 285 0.0 0.0 0.00 0.00 0.00 85 1010.3
20260506114519 66 285 0.0 0.0 0.00 0.00 0.00 85 1010.2
20260506113021 66 285 0.0 0.0 0.00 0.00 0.00 84 1010.0
20260506111528 66 285 0.0 0.0 0.00 0.00 0.00 84 1010.0
20260506110027 66 277 0.0 0.0 0.00 0.00 0.00 84 1009.9
20260506104529 66 277 0.0 0.0 0.00 0.00 0.00 84 1009.5
20260506103029 66 277 0.0 0.0 0.00 0.00 0.00 84 1009.4
20260506101536 66 277 0.0 0.0 0.00 0.00 0.00 83 1009.4
20260506100015 66 277 0.0 0.0 0.00 0.00 0.00 83 1008.9
20260506094521 66 277 0.0 0.0 0.00 0.00 0.00 82 1008.8
20260506093109 66 320 0.0 0.0 0.00 0.00 0.00 81 1008.8
20260506093003 66 320 0.0 0.0 0.00 0.00 0.00 81 1008.8
20260506091557 66 120 0.0 0.9 0.00 0.00 0.00 80 1008.7
20260506091503 66 120 0.0 0.9 0.00 0.00 0.00 80 1008.6
20260506090003 66 82 0.0 0.0 0.00 0.00 0.00 79 1008.6
20260506084515 67 58 0.0 0.0 0.00 0.00 0.00 77 1009.0
20260506083014 67 55 0.0 0.0 0.00 0.00 0.00 76 1008.6
20260506081518 67 173 0.0 0.0 0.00 0.00 0.00 74 1008.7
20260506073020 68 136 0.0 3.5 0.00 0.00 0.00 71 1009.1
20260506071526 68 286 0.0 0.0 0.00 0.00 0.00 71 1009.3
20260506061602 69 346 0.0 3.5 0.00 0.00 0.00 63 1010.0
20260506044616 70 155 0.0 0.0 0.00 0.00 0.00 57 1009.7
20260506044501 70 155 0.0 0.0 0.00 0.00 0.00 57 1009.7
20260506043020 70 155 0.0 0.0 0.00 0.00 0.00 57 1010.1
20260506041522 69 165 0.0 0.0 0.00 0.00 0.00 59 1010.2
20260506040023 70 165 0.0 0.0 0.00 0.00 0.00 57 1010.0
20260506034527 70 165 0.0 0.0 0.00 0.00 0.00 54 1009.9
20260506033033 71 165 0.0 0.0 0.00 0.00 0.00 52 1010.2
20260506031532 71 177 0.0 0.0 0.00 0.00 0.00 51 1010.1
20260506030034 71 169 0.0 3.5 0.00 0.00 0.00 49 1010.1
20260506024535 70 360 0.0 0.9 0.00 0.00 0.00 50 1010.4
20260506023043 71 360 0.0 0.0 0.00 0.00 0.00 49 1010.2
20260506021537 71 360 0.0 0.0 0.00 0.00 0.00 48 1010.1
20260506020115 71 360 0.0 0.0 0.00 0.00 0.00 48 1009.8
20260506014551 71 340 0.0 0.0 0.00 0.00 0.00 48 1009.9
20260506013016 71 340 0.0 0.0 0.00 0.00 0.00 49 1009.9
20260506011516 71 340 0.0 0.0 0.00 0.00 0.00 48 1009.6
20260506010037 72 340 0.0 0.0 0.00 0.00 0.00 47 1009.7
20260506004541 72 340 0.0 0.0 0.00 0.00 0.00 47 1009.8
20260506003025 73 269 0.0 0.0 0.00 0.00 0.00 47 1009.9
20260506001527 73 269 0.0 0.0 0.00 0.00 0.00 48 1009.8
20260506000048 74 269 0.0 0.0 0.00 0.00 0.00 48 1009.7
20260505234534 75 198 0.0 0.0 0.00 0.00 0.00 46 1009.7
20260505233033 75 198 0.0 0.0 0.00 0.00 0.00 45 1009.6
20260505231538 76 230 0.0 0.0 0.00 0.00 0.00 46 1009.6
20260505230045 76 230 0.0 0.0 0.00 0.00 0.00 44 1009.5
20260505224548 76 153 0.0 0.0 0.00 0.00 0.00 44 1009.7
20260505223007 76 55 0.0 0.0 0.00 0.00 0.00 44 1009.6
20260505221603 77 229 0.0 1.7 0.00 0.00 0.00 41 1009.6
20260505221506 77 229 0.0 1.7 0.00 0.00 0.00 41 1009.6
20260505220008 77 177 0.0 1.7 0.00 0.00 0.00 41 1009.3
20260505214512 77 165 0.0 0.0 0.00 0.00 0.00 41 1009.7
20260505213016 77 151 0.0 0.0 0.00 0.00 0.00 42 1009.7
20260505211528 77 136 0.0 3.5 0.00 0.00 0.00 40 1009.9
20260505210044 78 184 0.0 0.9 0.00 0.00 0.00 39 1009.8
20260505204555 78 64 0.0 0.9 0.00 0.00 0.00 41 1010.1
20260505203044 79 117 0.0 3.5 0.00 0.00 0.00 40 1010.2
20260505201546 78 123 0.0 0.0 0.00 0.00 0.00 41 1010.2